EDT,Max TemperatureF,Mean TemperatureF,Min TemperatureF,Max Dew PointF,MeanDew PointF,Min DewpointF,Max Humidity, Mean Humidity, Min Humidity, Max Sea Level PressureIn, Mean Sea Level PressureIn, Min Sea Level PressureIn, Max VisibilityMiles, Mean VisibilityMiles, Min VisibilityMiles, Max Wind SpeedMPH, Mean Wind SpeedMPH, Max Gust SpeedMPH,PrecipitationIn, CloudCover, Events, WindDirDegrees
2013-3-1,53,44,35,32,29,27,75,62,35,29.91,29.88,29.82,10,10,10,9,2,,0.00,4,,286
2013-3-2,50,40,30,33,29,23,87,66,40,29.92,29.89,29.81,10,10,10,8,1,,0.00,4,,316
2013-3-3,47,38,30,45,23,18,93,59,34,29.98,29.91,29.85,10,10,10,14,5,22,0.00,2,,309
2013-3-4,49,40,29,25,18,14,75,56,25,30.11,30.04,29.97,10,10,10,17,6,22,0.00,1,,292
2013-3-5,60,44,30,51,34,22,93,73,34,30.12,29.94,29.60,10,10,7,10,3,,0.13,3,Rain,137
2013-3-6,57,49,41,53,39,27,89,73,49,29.96,29.69,29.49,10,10,7,23,14,39,0.00,5,Rain,276
2013-3-7,53,44,35,31,29,26,81,58,38,30.20,30.10,29.96,10,10,10,18,11,28,0.00,2,,321
2013-3-8,55,44,33,29,27,23,81,56,29,30.25,30.20,30.12,10,10,10,21,5,30,0.00,0,,330
2013-3-9,62,46,33,36,30,16,90,64,17,30.31,30.28,30.24,10,10,7,13,6,17,0.00,0,,341
2013-3-10,67,47,28,42,31,16,100,71,14,30.33,30.29,30.24,10,10,10,8,2,,0.00,0,,113
2013-3-11,69,55,41,54,45,39,97,79,43,30.28,30.16,29.99,10,9,7,16,3,22,0.00,1,,148
2013-3-12,71,64,54,63,56,40,100,81,56,29.99,29.89,29.76,10,9,2,17,8,25,0.10,5,Rain,173
2013-3-13,59,50,42,38,30,20,66,50,25,30.10,30.01,29.93,10,10,10,14,9,22,0.00,2,,326
2013-3-14,60,46,32,29,21,18,84,52,20,30.23,30.16,30.10,10,10,10,20,8,29,0.00,0,,305
2013-3-15,62,44,26,36,28,16,93,64,23,30.20,30.10,29.94,10,10,10,15,3,21,0.00,0,,226
2013-3-16,80,65,50,45,40,36,66,47,25,29.94,29.84,29.69,10,10,10,18,10,29,0.00,0,,225
2013-3-17,65,55,45,54,43,37,94,62,36,30.18,29.99,29.84,10,9,2,17,8,23,0.00,3,,61
2013-3-18,59,50,41,54,44,38,100,89,72,30.19,30.09,29.93,10,8,2,13,9,18,0.00,8,,33
2013-3-19,68,57,46,49,41,22,100,71,24,29.99,29.88,29.79,10,6,1,12,4,18,0.03,4,Rain,290
2013-3-20,57,47,37,32,17,7,77,33,14,30.12,29.98,29.83,10,10,10,12,6,17,0.00,0,,320
2013-3-21,48,40,31,32,25,10,94,62,27,29.96,29.80,29.71,10,10,10,18,4,23,0.00,1,,319
2013-3-22,51,37,23,25,16,10,73,49,21,30.10,30.02,29.97,10,10,10,12,4,,0.00,0,,276
2013-3-23,55,45,35,32,27,19,82,58,26,30.06,30.01,29.94,10,10,7,6,2,,0.00,0,,242
2013-3-24,46,40,33,43,36,29,100,86,71,29.95,29.76,29.51,10,8,2,16,4,25,0.00,5,Rain,37
2013-3-25,48,43,38,41,34,21,100,79,34,29.81,29.63,29.54,10,7,1,16,3,26,0.00,6,,269
2013-3-26,50,42,35,32,27,24,72,58,40,30.09,29.93,29.81,10,10,10,10,4,,0.00,4,,272
2013-3-27,55,44,33,29,25,21,75,54,26,30.22,30.14,30.09,10,10,10,15,4,24,0.00,0,,294
2013-3-28,57,45,33,31,25,21,80,55,25,30.28,30.21,30.15,10,10,10,13,3,23,0.00,0,,307
2013-3-29,59,44,28,34,28,23,93,67,25,30.33,30.27,30.20,10,10,10,9,2,17,0.00,0,,265
2013-3-30,66,52,39,43,36,27,81,62,27,30.25,30.19,30.12,10,10,10,9,4,,0.00,1,,205
2013-3-31,71,60,48,58,48,40,93,73,46,30.44,30.00,29.83,10,10,5,18,5,25,0.03,2,Rain,179